Altoona, PA

8:29 PM EST on December 13, 2019 (GMT -0500)
Altoona-Blair County

Weather History for KAOO - May, 2019

Change the Weather History Date:

Monday, May 13, 2019

  Actual Average Record
Temperature  
Mean Temperature 49 °F 57 °F  
Max Temperature 53 °F 68 °F 87 °F (2014)
Min Temperature 44 °F 46 °F 31 °F (1996)
Degree Days  
Heating Degree Days 16 8  
Month to date heating degree days 67 128  
Since 1 July heating degree days 5621 6046  
Cooling Degree Days 0 1  
Month to date cooling degree days 8 3  
Year to date cooling degree days 8 9  
Moisture  
Dew Point 44 °F    
Average Humidity 83    
Maximum Humidity 92    
Minimum Humidity 74    
Precipitation  
Precipitation 0.30 in 0.12 in 1.30 in (1971)
Month to date precipitation 3.95 1.51  
Year to date precipitation 16.76 11.98  
Sea Level Pressure  
Sea Level Pressure 29.78 in    
Wind  
Wind Speed 8 mph (South)    
Max Wind Speed 18 mph    
Max Gust Speed 24 mph    
Visibility 6 miles    
Events Rain    
T = Trace of Precipitation, MM = Missing Value Source: NWS Daily Summary

Daily Weather History Graph

Daily Weather History Graph

Search for Another Location

Airport or City:

Astronomy

May. 13, 2019 Rise Set
Actual Time 5:59 AM EDT 8:20 PM EDT
Civil Twilight 5:28 AM EDT 8:51 PM EDT
Nautical Twilight 4:51 AM EDT 9:29 PM EDT
Astronomical Twilight 4:09 AM EDT 10:11 PM EDT
Moon 2:29 PM EDT (5/13) 3:17 AM EDT (5/13)
Length of Visible Light 15h 22m
Length of Day
14h 20m
Waxing Gibbous, 68% of the Moon is Illuminated
May 13
Waxing Gibbous
May 18
Full
May 26
Last Quarter
Jun 3
New
Jun 10
First Quarter

Hourly Weather History & Observations

Time (EDT) Temp. Windchill Dew Point Humidity Pressure Visibility Wind Dir Wind Speed Gust Speed Precip Events Conditions
12:53 AM 45.0 °F 40.6 °F 43.0 °F 93% 29.81 in 6.0 mi ESE 8.1 mph - N/A   Overcast
1:53 AM 45.0 °F 40.1 °F 43.0 °F 93% 29.80 in 4.0 mi SE 9.2 mph - N/A   Overcast
2:53 AM 45.0 °F 40.6 °F 42.1 °F 90% 29.80 in 10.0 mi SE 8.1 mph - N/A   Overcast
3:53 AM 45.0 °F 40.1 °F 42.1 °F 90% 29.78 in 10.0 mi SE 9.2 mph - N/A   Overcast
4:53 AM 44.1 °F 39.5 °F 42.1 °F 93% 29.78 in 5.0 mi SE 8.1 mph - 0.00 in Rain Light Rain
5:50 AM 44.6 °F 41.4 °F 42.8 °F 93% 29.76 in 6.0 mi SE 5.8 mph - 0.01 in   Overcast
5:53 AM 44.1 °F 40.8 °F 42.1 °F 93% 29.78 in 6.0 mi SE 5.8 mph - 0.01 in   Overcast
6:53 AM 44.1 °F 40.8 °F 43.0 °F 96% 29.79 in 2.5 mi SSE 5.8 mph - N/A   Overcast
7:01 AM 44.1 °F 40.1 °F 43.0 °F 96% 29.78 in 4.0 mi South 6.9 mph - N/A   Overcast
7:40 AM 45.0 °F 40.6 °F 43.0 °F 93% 29.78 in 2.5 mi SSE 8.1 mph - 0.00 in Rain Light Rain
7:53 AM 45.0 °F 40.6 °F 43.0 °F 93% 29.79 in 3.0 mi SE 8.1 mph - 0.00 in   Overcast
8:10 AM 45.0 °F 40.1 °F 43.0 °F 93% 29.78 in 2.0 mi SE 9.2 mph - 0.00 in Rain Light Rain
8:40 AM 45.0 °F 41.2 °F 43.0 °F 93% 29.77 in 3.0 mi SE 6.9 mph - 0.01 in   Overcast
8:53 AM 45.0 °F 41.2 °F 43.0 °F 93% 29.78 in 5.0 mi SE 6.9 mph - 0.01 in   Overcast
9:53 AM 46.0 °F 42.5 °F 43.0 °F 89% 29.79 in 3.0 mi SSE 6.9 mph - N/A   Overcast
9:59 AM 46.0 °F 41.4 °F 43.0 °F 89% 29.77 in 1.8 mi SSE 9.2 mph - N/A   Overcast
10:13 AM 46.0 °F 41.9 °F 43.0 °F 89% 29.76 in 2.5 mi SSE 8.1 mph - N/A   Overcast
10:20 AM 46.0 °F 41.4 °F 44.1 °F 93% 29.77 in 6.0 mi SSE 9.2 mph - N/A   Overcast
10:53 AM 46.0 °F 44.8 °F 43.0 °F 89% 29.80 in 5.0 mi South 3.5 mph - 0.02 in Rain Light Rain
11:11 AM 46.0 °F 41.9 °F 43.0 °F 89% 29.78 in 5.0 mi SSE 8.1 mph - 0.03 in Rain Light Rain
11:28 AM 46.0 °F 42.5 °F 43.0 °F 89% 29.79 in 4.0 mi South 6.9 mph - 0.06 in Rain Light Rain
11:33 AM 46.0 °F 41.4 °F 44.1 °F 93% 29.80 in 5.0 mi South 9.2 mph - 0.06 in Rain Light Rain
11:44 AM 46.0 °F 43.1 °F 44.1 °F 93% 29.80 in 9.0 mi South 5.8 mph - 0.07 in Rain Light Rain
11:53 AM 46.0 °F 42.5 °F 43.0 °F 89% 29.82 in 10.0 mi SSW 6.9 mph - 0.07 in Rain Light Rain
12:00 PM 46.0 °F 41.4 °F 43.0 °F 89% 29.76 in 2.5 mi ESE 9.2 mph - 0.02 in Rain Rain
12:12 PM 46.0 °F - 44.1 °F 93% 29.77 in 9.0 mi Calm Calm - 0.02 in Rain Light Rain
12:17 PM 46.9 °F - 44.1 °F 90% 29.77 in 10.0 mi SSE 5.8 mph - 0.02 in   Overcast
12:53 PM 48.0 °F - 45.0 °F 89% 29.78 in 8.0 mi SSE 6.9 mph - 0.02 in   Overcast
1:26 PM 50.0 °F - 45.0 °F 83% 29.76 in 10.0 mi South 8.1 mph - N/A   Overcast
1:53 PM 48.0 °F - 45.0 °F 89% 29.78 in 4.0 mi SSE 6.9 mph - 0.01 in Rain Light Rain
2:04 PM 48.9 °F - 46.0 °F 90% 29.75 in 10.0 mi South 8.1 mph - 0.01 in Rain Light Rain
2:16 PM 50.0 °F - 46.0 °F 86% 29.75 in 10.0 mi SSE 8.1 mph - 0.01 in   Overcast
2:53 PM 51.1 °F - 46.9 °F 86% 29.75 in 10.0 mi SSE 10.4 mph - 0.01 in   Overcast
3:53 PM 52.0 °F - 48.0 °F 86% 29.74 in 10.0 mi South 10.4 mph - N/A   Overcast
4:33 PM 52.0 °F - 46.9 °F 83% 29.75 in 2.5 mi WNW 9.2 mph - 0.05 in Rain Light Rain
4:35 PM 51.1 °F - 48.0 °F 89% 29.75 in 1.2 mi WNW 11.5 mph - 0.12 in Rain Heavy Rain
4:45 PM 51.1 °F - 48.0 °F 89% 29.74 in 2.5 mi NW 5.8 mph - 0.13 in Rain Light Rain
4:47 PM 51.8 °F - 48.2 °F 88% 29.74 in 4.0 mi NNW 4.6 mph - 0.14 in Rain Light Rain
4:53 PM 52.0 °F - 48.0 °F 86% 29.76 in 4.0 mi WNW 3.5 mph - 0.14 in Rain Light Rain
5:53 PM 53.1 °F - 48.0 °F 83% 29.76 in 10.0 mi SSW 5.8 mph - 0.00 in   Mostly Cloudy
6:44 PM 53.1 °F - 46.9 °F 80% 29.76 in 10.0 mi NW 6.9 mph - 0.00 in Rain Light Rain
6:53 PM 52.0 °F - 46.0 °F 80% 29.78 in 8.0 mi WNW 8.1 mph - 0.00 in Rain Light Rain
7:53 PM 51.1 °F - 44.1 °F 77% 29.81 in 10.0 mi WNW 13.8 mph 24.2 mph 0.01 in   Overcast
8:53 PM 50.0 °F - 43.0 °F 77% 29.82 in 10.0 mi WNW 9.2 mph - N/A   Overcast
9:53 PM 48.9 °F - 44.1 °F 83% 29.85 in 10.0 mi NW 5.8 mph - N/A   Overcast
10:43 PM 48.0 °F - 43.0 °F 83% 29.85 in 10.0 mi WNW 12.7 mph - 0.00 in Rain Light Rain
10:53 PM 46.9 °F - 43.0 °F 86% 29.86 in 10.0 mi WNW 9.2 mph - 0.00 in   Overcast
11:53 PM 46.9 °F - 42.1 °F 83% 29.86 in 10.0 mi WNW 9.2 mph - N/A   Mostly Cloudy